Weather History for KNTU - July, 2013

Change the Weather History Date:

Saturday, July 6, 2013

  Actual Average Record
Temperature  
Mean Temperature 82 °F -  
Max Temperature 90 °F 83 °F 96 °F (1999)
Min Temperature 73 °F 67 °F 60 °F (2014)
Cooling Degree Days 16    
Growing Degree Days 32 (Base 50)    
Moisture  
Dew Point 71 °F    
Average Humidity 71    
Maximum Humidity 94    
Minimum Humidity 48    
Precipitation  
Precipitation 0.00 in - - ()
Sea Level Pressure  
Sea Level Pressure 30.20 in    
Wind  
Wind Speed 9 mph (SW)    
Max Wind Speed 13 mph    
Max Gust Speed -    
Visibility 10 miles    
Events      
Averages and records for this station are not official NWS values.
T = Trace of Precipitation, MM = Missing Value Source: NWS Daily Summary

Daily Weather History Graph

Daily Weather History Graph

Search for Another Location

Airport or City:

Trip Planner

Search our weather history database for the weather conditions in past years. The results will help you decide how hot, cold, wet, or windy it might be!

Date:

Astronomy

Jul. 06, 2013 Rise Set
Actual Time 5:51 AM EDT 8:26 PM EDT
Civil Twilight 5:20 AM EDT 8:56 PM EDT
Nautical Twilight 4:43 AM EDT 9:34 PM EDT
Astronomical Twilight 4:01 AM EDT 10:16 PM EDT
Moon 4:34 AM EDT (7/6) 7:07 PM EDT (7/6)
Length of Visible Light 15h 35m
Length of Day
14h 35m
Waning Crescent, 2% of the Moon is Illuminated
Jul 6
Waning Crescent
Jul 8
New
Jul 15
First Quarter
Jul 22
Full
Jul 29
Last Quarter

Hourly Weather History & Observations

Time (EDT) Temp. Heat Index Dew Point Humidity Pressure Visibility Wind Dir Wind Speed Gust Speed Precip Events Conditions
12:56 AM 78.1 °F - 75.0 °F 90% 30.24 in 10.0 mi SW 9.2 mph - N/A   Clear
1:56 AM 77.0 °F - 73.9 °F 90% 30.23 in 10.0 mi SW 11.5 mph - N/A   Clear
2:56 AM 75.9 °F - 73.9 °F 94% 30.23 in 10.0 mi SW 9.2 mph - N/A   Clear
3:56 AM 75.0 °F - 71.8 °F 90% 30.22 in 10.0 mi SW 8.1 mph - N/A   Clear
4:56 AM 75.0 °F - 71.8 °F 90% 30.23 in 10.0 mi SW 8.1 mph - N/A   Clear
5:56 AM 73.9 °F - 69.3 °F 85% 30.24 in 10.0 mi SW 8.1 mph - N/A   Clear
6:56 AM 73.9 °F - 69.4 °F 86% 30.24 in 10.0 mi SW 5.8 mph - N/A   Partly Cloudy
7:56 AM 77.0 °F - 71.2 °F 82% 30.25 in 10.0 mi SW 10.4 mph - N/A   Scattered Clouds
8:56 AM 80.1 °F 83.4 °F 70.9 °F 73% 30.25 in 10.0 mi WSW 11.5 mph - N/A   Scattered Clouds
9:56 AM 82.0 °F 87.0 °F 72.1 °F 72% 30.25 in 10.0 mi WSW 9.2 mph - N/A   Scattered Clouds
10:56 AM 84.9 °F 90.4 °F 71.4 °F 64% 30.25 in 10.0 mi WSW 4.6 mph - N/A   Scattered Clouds
11:56 AM 86.0 °F 91.5 °F 71.1 °F 61% 30.24 in 10.0 mi SW 9.2 mph - N/A   Scattered Clouds
12:56 PM 88.0 °F 93.8 °F 71.1 °F 57% 30.22 in 10.0 mi WSW 8.1 mph - N/A   Scattered Clouds
1:56 PM 89.1 °F 94.1 °F 70.0 °F 53% 30.20 in 10.0 mi SW 12.7 mph - N/A   Scattered Clouds
2:56 PM 89.1 °F 94.1 °F 70.0 °F 53% 30.19 in 10.0 mi South 10.4 mph - N/A   Scattered Clouds
3:56 PM 89.1 °F 93.7 °F 69.1 °F 52% 30.17 in 10.0 mi SW 8.1 mph - N/A   Scattered Clouds
4:56 PM 90.0 °F 93.6 °F 68.0 °F 48% 30.15 in 10.0 mi SSW 11.5 mph - N/A   Scattered Clouds
5:56 PM 89.1 °F 92.9 °F 68.0 °F 50% 30.14 in 10.0 mi SSW 9.2 mph - N/A   Scattered Clouds
6:56 PM 88.0 °F 92.1 °F 69.1 °F 53% 30.14 in 10.0 mi SW 9.2 mph - N/A   Scattered Clouds
7:56 PM 86.0 °F 90.1 °F 69.1 °F 57% 30.13 in 10.0 mi SW 8.1 mph - N/A   Scattered Clouds
8:56 PM 84.0 °F 90.2 °F 73.0 °F 69% 30.14 in 10.0 mi SSW 6.9 mph - N/A   Scattered Clouds
9:56 PM 82.0 °F 87.9 °F 73.9 °F 76% 30.17 in 10.0 mi SSW 8.1 mph - N/A   Partly Cloudy
10:56 PM 80.1 °F 83.8 °F 72.0 °F 76% 30.18 in 10.0 mi SSW 6.9 mph - N/A   Scattered Clouds
11:56 PM 79.0 °F - 72.0 °F 79% 30.18 in 10.0 mi SW 10.4 mph - N/A   Partly Cloudy